Location: Belloy
(55.7522°N, 118.2333°W)
Time: 00:04:55
(UTC+00:00)

Envisat - Pass Details

Date: 05 December 2021
Orbit: 764 x 766 km, 98.2° (Epoch: 27 January)

Event Time Altitude Azimuth Distance (km) Brightness Sun altitude
Rises 14:51:30 0° 10° (N) 3,250 6.1 -9.4°
Reaches altitude 10° 14:54:14 10° 356° (N) 2,319 5.2 -9.1°
Maximum altitude 14:58:06 22° 307° (NW) 1,625 4.1 -8.6°
Drops below altitude 10° 15:01:57 10° 257° (WSW) 2,308 5.0 -8.1°
Sets 15:04:41 0° 243° (WSW) 3,230 5.9 -7.8°
